Location: Windsor
(43.2292°N, 89.3015°W)
Time: 13:01:15
(UTC+00:00)

AO-7 - Pass Details

Date: 01 July 2022
Orbit: 1440 x 1458 km, 101.9° (Epoch: 14 August)

Event Time Altitude Azimuth Distance (km) Brightness Sun altitude
Rises 09:28:05 0° 25° (NNE) 4,559 ? -8.4°
Reaches altitude 10° 09:31:16 10° 34° (NE) 3,579 ? -8.0°
Maximum altitude 09:38:40 34° 97° (E) 2,220 ? -7.0°
Drops below altitude 10° 09:46:01 10° 159° (SSE) 3,571 ? -6.0°
Sets 09:49:09 0° 169° (SSE) 4,547 ? -5.5°
